Temp
84 83 84 85 85 85 84 84 82 79 81 82 75 72 72 73 79 80 74 73 73 72 72 72 72 72 73 73 72 72 72 72 71 71 71 71 72 72
86 82 82 85 84 83 84 84 82 82 80 83 78 74 72 74 75 80 78 74 72 72 71 71 71 72 72 72 72 71 71 71 71 70 70 70 70 71
83 82 81 81 84 84 82 82 82 83 81 80 78 73 72 74 77 81 81 82 81 71 71 71 71 71 71 71 72 71 70 70 70 69 69 69 69 70
82 80 81 83 80 80 80 77 79 80 82 77 78 77 76 75 78 77 81 86 84 72 71 70 70 69 70 70 70 70 69 69 68 68 68 68 68 68
83 81 81 80 79 82 75 74 78 80 78 80 79 78 78 78 76 78 78 80 84 72 69 69 69 69 68 68 67 67 66 66 66 66 66 66 66 67
83 82 82 80 80 80 77 72 76 77 74 77 79 77 78 76 78 77 76 79 81 85 78 76 73 70 68 67 66 66 64 63 63 63 63 63 64 64
82 82 82 80 76 75 76 73 71 71 73 77 78 77 76 75 75 78 79 79 77 81 81 82 81 81 80 68 72 68 65 63 62 62 62 62 61 62
80 81 82 74 73 69 69 69 73 72 68 71 74 77 75 77 78 77 78 76 75 80 78 81 83 82 85 84 67 66 65 64 63 62 62 61 61 62
81 81 81 78 73 74 69 68 68 68 70 72 71 77 76 76 76 73 75 76 78 77 77 79 80 80 83 83 66 65 64 63 62 62 62 61 61 60
82 82 81 77 76 76 74 74 70 67 67 67 73 79 79 79 77 77 75 74 75 78 76 76 79 79 82 82 65 66 64 62 62 61 61 60 58 57
77 76 75 76 70 66 70 67 68 70 66 64 66 66 67 68 74 77 75 75 75 75 75 78 77 78 79 80 79 64 62 61 60 61 60 59 57 56
72 72 67 71 65 64 71 72 72 68 63 66 68 69 68 70 66 78 78 77 76 74 76 76 75 77 75 78 80 80 79 60 59 58 58 57 56 75
71 71 75 62 61 60 62 74 71 67 65 68 72 77 76 75 76 77 78 79 76 77 75 78 76 75 76 76 78 79 79 78 79 73 57 57 55 59
75 77 74 60 58 57 61 60 60 63 64 68 74 75 75 76 76 75 74 76 77 76 73 74 77 76 77 76 74 77 78 78 77 76 77 65 58 58
73 67 60 55 55 57 60 60 61 67 66 69 71 73 74 74 72 71 72 72 72 73 75 73 76 75 77 75 74 75 70 76 77 75 75 75 75 75
65 68 64 63 60 62 60 60 69 70 70 71 71 73 70 71 67 68 69 63 68 69 66 68 71 72 75 76 75 74 76 72 76 75 73 75 76 76
64 67 69 67 66 66 66 66 70 70 70 69 70 68 64 64 63 68 69 65 64 63 66 71 72 73 76 73 74 75 74 74 76 73 71 72 75 76
72 71 69 68 66 65 67 64 68 68 67 70 72 69 69 70 62 62 62 60 62 65 66 65 70 71 73 71 65 73 74 73 74 73 71 70 71 74
69 69 68 67 69 67 64 62 63 65 63 65 62 62 66 62 60 59 59 59 62 62 62 66 72 74 71 69 71 55 71 73 72 72 72 70 69 71
66 66 65 65 65 66 65 64 62 61 61 60 60 64 62 60 59 67 69 68 62 61 64 64 70 75 73 70 70 71 52 70 71 70 70 71 71 59
66 66 67 67 66 66 64 63 62 62 62 63 63 60 60 60 59 62 71 58 60 63 68 73 73 60 74 73 70 71 71 54 60 67 68 69 69 71
70 70 68 68 65 64 64 63 62 60 61 61 62 60 60 61 67 65 64 62 62 70 74 72 70 72 72 72 70 67 72 72 59 57 57 57 67 66
68 68 68 67 67 68 64 64 65 63 61 62 60 61 63 63 69 69 61 62 73 74 72 71 71 73 73 72 66 72 66 69 74 73 73 56 57 56
MSLP
1019.56 1019.77 1019.80 1019.61 1019.61 1019.45 1019.44 1019.21 1019.12 1018.71 1018.60 1019.14 1020.25 1020.87 1021.07 1021.31 1021.22 1021.65 1022.05 1022.52 1022.87 1023.15 1023.35 1023.43 1023.56 1023.72 1023.85 1024.01 1024.19 1024.24 1024.25 1024.24 1024.31 1024.45 1024.47 1024.37 1024.31 1023.91
1019.30 1019.45 1019.31 1019.39 1019.50 1019.43 1019.32 1019.32 1019.31 1018.87 1018.49 1019.08 1020.08 1020.76 1021.05 1021.24 1021.60 1021.64 1021.96 1022.43 1022.91 1023.11 1023.25 1023.40 1023.60 1023.69 1023.78 1023.98 1024.03 1024.13 1024.19 1024.21 1024.18 1024.11 1024.14 1024.17 1024.09 1023.85
1018.96 1019.09 1019.19 1019.17 1019.00 1019.19 1019.50 1019.43 1019.30 1019.19 1018.70 1019.17 1020.03 1020.71 1020.81 1020.83 1021.11 1021.44 1021.97 1022.12 1022.46 1023.12 1023.33 1023.50 1023.49 1023.61 1023.65 1023.84 1023.98 1024.05 1024.09 1024.15 1024.20 1024.27 1024.24 1024.07 1024.01 1023.90
1018.44 1018.68 1018.58 1018.75 1018.85 1019.00 1019.37 1019.53 1019.42 1019.20 1019.03 1018.98 1019.71 1020.12 1020.21 1020.48 1020.65 1021.32 1021.53 1021.60 1021.91 1022.79 1023.05 1023.05 1023.23 1023.18 1023.23 1023.43 1023.60 1023.74 1023.94 1024.10 1024.17 1024.23 1024.28 1024.23 1024.04 1023.90
1017.87 1018.08 1018.02 1018.13 1018.11 1018.41 1019.08 1019.28 1019.28 1019.30 1019.01 1018.71 1018.93 1019.78 1019.99 1020.25 1020.76 1020.88 1021.45 1021.46 1021.60 1022.16 1022.46 1022.58 1022.74 1022.91 1023.05 1023.13 1023.25 1023.39 1023.53 1023.87 1023.93 1024.10 1024.24 1024.27 1024.13 1023.82
1017.26 1017.42 1017.48 1017.58 1017.78 1018.10 1018.64 1019.19 1019.18 1019.23 1019.20 1019.19 1018.70 1019.04 1019.33 1019.92 1020.11 1020.34 1020.89 1021.27 1021.19 1021.29 1021.92 1021.89 1022.40 1022.61 1022.79 1022.85 1022.99 1023.04 1023.19 1023.29 1023.43 1023.64 1023.55 1023.95 1024.01 1023.86
1016.39 1016.47 1016.49 1016.60 1016.92 1017.47 1018.05 1018.38 1018.85 1019.14 1019.14 1018.92 1018.93 1018.83 1018.91 1019.35 1019.25 1019.70 1019.91 1020.56 1021.18 1020.95 1021.11 1021.28 1021.51 1021.71 1021.91 1022.50 1022.46 1022.72 1022.83 1023.05 1023.26 1023.44 1023.61 1023.41 1023.67 1023.66
1015.44 1015.64 1015.73 1016.27 1016.23 1016.64 1017.18 1017.92 1018.49 1018.51 1018.65 1018.98 1018.93 1018.26 1018.36 1018.47 1018.67 1019.03 1019.39 1019.95 1020.30 1020.99 1021.03 1020.65 1021.02 1020.93 1020.87 1021.28 1021.97 1022.11 1022.39 1022.71 1022.86 1023.11 1023.25 1023.28 1023.17 1023.26
1014.68 1014.75 1014.83 1015.24 1015.74 1016.00 1016.65 1017.04 1017.95 1018.39 1018.46 1018.44 1018.62 1018.38 1018.26 1018.25 1018.39 1018.95 1019.11 1019.36 1019.68 1020.61 1020.76 1020.22 1020.87 1020.55 1020.76 1020.98 1022.01 1022.04 1022.16 1022.50 1022.65 1022.67 1023.09 1023.07 1022.95 1022.81
1014.13 1013.95 1014.34 1014.75 1014.82 1015.14 1015.95 1016.75 1017.07 1017.73 1018.19 1018.59 1018.41 1018.04 1018.09 1018.11 1018.35 1018.55 1018.92 1019.43 1019.90 1020.13 1020.55 1020.02 1020.78 1020.46 1020.75 1021.07 1021.95 1021.94 1022.05 1022.14 1022.31 1022.45 1022.70 1022.88 1022.77 1022.56
1013.94 1014.06 1013.91 1014.28 1014.59 1015.20 1015.43 1016.19 1016.87 1017.50 1018.05 1018.44 1018.45 1018.46 1018.35 1018.25 1018.17 1018.57 1018.73 1019.00 1019.19 1019.79 1020.61 1020.18 1020.58 1020.53 1020.80 1021.12 1021.55 1022.10 1022.13 1022.23 1022.33 1022.42 1022.48 1022.65 1022.48 1022.21
1013.93 1013.94 1013.81 1014.11 1014.59 1015.22 1015.37 1016.02 1016.54 1017.05 1017.49 1018.09 1018.47 1018.46 1018.35 1018.46 1018.66 1018.17 1018.34 1018.21 1018.68 1019.36 1020.07 1020.01 1020.53 1020.63 1020.34 1020.97 1021.14 1021.24 1021.23 1022.05 1022.03 1022.14 1022.29 1022.32 1022.20 1021.41
1013.60 1013.51 1013.65 1014.23 1014.59 1015.00 1015.55 1015.60 1015.84 1016.53 1017.17 1017.67 1017.60 1017.81 1017.94 1018.21 1018.37 1018.39 1018.36 1018.26 1018.63 1018.89 1019.90 1019.98 1020.19 1020.52 1020.47 1020.46 1020.85 1021.00 1020.97 1020.97 1021.02 1021.28 1021.91 1022.00 1022.01 1021.79
1013.28 1013.28 1013.68 1014.19 1014.40 1014.78 1015.26 1015.48 1015.85 1016.26 1016.92 1017.47 1017.41 1017.46 1017.66 1017.98 1018.37 1018.70 1018.98 1018.97 1019.23 1019.24 1020.08 1020.22 1020.00 1020.16 1020.10 1020.14 1020.28 1020.69 1020.69 1020.89 1021.04 1020.96 1021.01 1021.33 1021.49 1021.46
1013.48 1013.62 1013.91 1014.16 1014.43 1014.87 1015.31 1015.48 1015.78 1016.31 1016.65 1017.03 1017.09 1017.39 1017.81 1018.25 1018.70 1019.08 1019.32 1019.51 1019.82 1020.10 1020.30 1020.67 1020.41 1020.53 1020.29 1020.18 1020.20 1020.38 1020.80 1020.61 1021.08 1021.03 1020.84 1020.71 1020.62 1020.58
1013.64 1013.83 1013.89 1014.54 1014.75 1014.74 1015.28 1015.70 1015.97 1016.12 1016.05 1016.36 1016.84 1017.38 1018.10 1018.51 1019.00 1019.20 1019.43 1019.82 1019.88 1020.30 1020.78 1021.07 1020.94 1020.68 1020.13 1020.31 1020.44 1020.28 1020.57 1020.53 1020.76 1020.84 1020.87 1020.47 1020.32 1020.21
1013.74 1013.89 1014.05 1014.58 1014.79 1015.09 1015.45 1015.71 1015.75 1015.94 1016.13 1016.56 1017.08 1017.65 1018.17 1018.58 1019.02 1019.37 1019.65 1019.98 1020.27 1020.56 1020.52 1020.78 1020.79 1020.65 1020.39 1020.55 1020.21 1020.43 1020.48 1020.53 1020.86 1020.96 1020.86 1020.28 1019.90 1019.91
1013.50 1013.74 1014.02 1014.41 1014.72 1015.14 1015.44 1015.72 1015.73 1015.88 1016.30 1016.60 1017.10 1017.59 1017.97 1018.34 1019.02 1019.88 1020.07 1020.07 1020.45 1020.52 1020.45 1020.67 1020.43 1020.36 1020.35 1020.80 1021.13 1020.59 1020.57 1020.68 1020.81 1020.82 1020.71 1020.21 1019.75 1019.70
1013.53 1013.87 1014.08 1014.34 1014.64 1015.09 1015.34 1015.58 1015.80 1016.07 1016.41 1017.09 1017.47 1017.94 1018.12 1018.71 1019.19 1019.69 1019.83 1020.21 1020.52 1020.63 1020.47 1020.35 1020.06 1019.78 1019.62 1019.65 1020.99 1021.98 1021.04 1020.79 1020.83 1020.56 1020.50 1020.31 1020.20 1020.14
1013.59 1013.97 1014.22 1014.46 1014.71 1014.93 1015.19 1015.42 1015.68 1016.13 1016.49 1017.03 1017.46 1017.85 1018.18 1018.58 1018.93 1019.40 1019.56 1019.74 1020.09 1020.22 1020.31 1020.55 1020.18 1019.93 1019.73 1019.95 1020.40 1021.17 1022.15 1021.38 1021.05 1020.74 1020.58 1020.43 1020.33 1021.04
1013.81 1013.96 1014.14 1014.40 1014.58 1014.76 1015.03 1015.23 1015.55 1016.00 1016.42 1016.87 1017.39 1017.87 1018.14 1018.41 1018.84 1019.22 1019.09 1019.58 1019.74 1019.69 1019.65 1019.70 1020.23 1020.99 1020.33 1020.60 1020.29 1020.58 1021.37 1022.17 1021.90 1021.44 1021.19 1020.64 1020.36 1020.18
1013.85 1013.86 1014.08 1014.28 1014.51 1014.72 1014.92 1015.23 1015.59 1016.07 1016.51 1016.96 1017.35 1017.78 1018.14 1018.23 1018.43 1018.77 1019.05 1019.45 1019.31 1019.28 1019.18 1019.89 1020.44 1020.39 1020.34 1020.22 1020.16 1020.71 1020.73 1021.04 1021.86 1021.86 1021.86 1021.84 1021.11 1020.55
1013.86 1013.93 1013.99 1014.20 1014.38 1014.53 1014.86 1015.03 1015.24 1015.70 1016.24 1016.64 1017.19 1017.68 1017.93 1018.21 1018.29 1018.47 1018.98 1019.09 1018.82 1019.00 1019.32 1019.63 1020.11 1020.28 1020.19 1020.27 1020.41 1020.40 1020.80 1020.63 1020.51 1020.60 1020.47 1021.35 1021.43 1021.42
Wind_Speed
6 5 5 4 4 4 4 4 4 4 1 4 3 3 4 4 7 8 7 11 10 9 8 8 7 6 6 4 3 3 4 5 6 7 8 9 12 14
5 6 6 4 5 4 5 4 5 4 3 2 2 4 5 5 8 9 9 11 9 10 9 8 6 5 5 4 3 3 3 4 5 6 7 8 9 11
7 7 8 6 6 6 4 4 4 5 5 4 3 3 5 8 10 9 8 8 8 8 8 7 7 7 6 5 3 3 2 2 2 4 6 7 8 10
9 9 10 7 9 6 4 4 5 5 5 3 3 4 4 8 9 9 7 7 6 10 10 9 8 9 9 8 6 5 4 3 1 3 4 5 7 7
11 11 11 11 11 6 5 4 5 5 4 4 4 3 3 8 9 7 7 5 6 11 10 11 11 10 9 9 8 7 6 5 4 1 1 3 4 6
12 13 13 13 12 9 6 6 6 6 4 5 4 5 5 9 8 8 8 6 6 6 4 2 9 11 10 10 9 8 8 8 7 4 1 2 3 3
13 14 15 15 14 8 5 6 7 6 4 5 5 4 6 9 10 8 7 7 6 5 5 5 7 7 7 9 8 11 10 8 6 6 6 4 4 3
13 14 15 14 14 12 12 8 10 10 6 4 5 7 8 9 9 9 7 8 6 4 5 5 3 6 3 4 6 5 8 9 8 8 7 6 5 4
14 13 13 10 14 10 11 11 11 9 5 6 5 9 8 10 10 9 9 8 4 5 5 4 3 4 3 6 2 4 5 7 8 7 7 6 6 6
15 15 13 12 15 15 9 9 8 7 8 3 9 8 7 9 10 8 8 7 5 4 3 2 1 3 1 2 4 1 5 7 7 7 6 6 7 7
8 7 7 11 9 7 7 6 8 8 2 2 6 4 4 6 7 7 8 8 6 5 3 3 3 2 1 2 2 4 1 4 6 6 5 5 6 8
5 7 9 6 4 6 8 10 11 9 8 6 4 5 6 6 8 8 7 7 5 5 6 5 4 1 3 3 1 2 4 6 5 5 4 4 4 7
4 5 5 8 7 9 11 11 12 9 10 7 6 6 5 7 6 5 5 4 5 4 6 4 4 4 1 0 2 1 2 1 2 4 10 6 3 5
2 2 1 7 9 9 9 8 12 10 5 4 7 7 7 6 5 4 5 5 3 3 8 3 3 3 1 1 2 2 1 2 3 3 4 1 7 7
2 3 3 6 9 7 5 10 12 7 7 6 6 6 5 4 6 6 5 5 5 4 5 3 2 3 2 2 3 2 5 1 1 3 4 4 4 5
6 4 5 4 2 6 6 5 5 5 6 6 6 6 5 5 3 3 3 3 3 3 2 3 4 4 3 2 2 3 1 4 2 3 5 4 4 4
6 5 5 4 4 4 4 6 6 5 6 5 6 6 4 4 3 2 2 2 2 2 3 3 3 2 1 2 3 1 3 3 2 4 6 6 5 3
4 4 4 3 3 3 4 4 4 5 4 6 7 6 6 6 5 3 2 3 1 4 3 3 4 4 4 5 5 4 2 3 3 4 5 5 5 6
4 3 3 3 2 2 3 3 4 5 5 5 5 4 4 6 7 5 4 3 3 2 2 3 4 4 3 4 6 5 5 3 4 4 4 5 6 5
2 0 1 1 2 3 4 5 5 5 4 5 5 7 6 7 5 6 7 6 5 3 4 2 4 2 2 4 4 4 4 5 3 4 5 5 2 3
0 2 2 2 2 2 3 4 5 6 7 7 7 6 6 6 4 4 3 4 5 4 6 5 4 4 3 2 4 3 4 2 3 5 5 4 3 2
2 2 2 2 2 3 4 5 5 6 7 6 7 6 5 4 6 4 4 5 3 6 4 6 5 4 3 3 3 1 2 2 7 5 2 3 5 4
2 1 2 3 3 4 4 4 5 6 6 6 6 5 5 5 6 7 5 4 7 5 6 6 5 4 2 0 2 2 3 1 2 2 2 10 6 8
Wind_Direction
221 225 241 218 221 223 226 231 259 299 292 108 133 155 157 177 184 164 144 159 173 165 158 156 151 135 132 123 94 90 78 70 64 54 47 36 20 9
231 223 223 216 216 216 226 232 220 243 252 105 101 140 172 171 183 175 170 172 174 171 171 166 168 173 166 159 143 132 97 83 68 67 59 46 35 20
229 223 234 216 216 220 216 220 231 245 254 126 133 155 158 169 176 179 174 190 174 177 178 181 183 190 196 195 175 170 149 139 97 59 47 45 37 25
226 226 234 222 230 228 220 226 244 224 272 226 111 154 162 176 169 174 188 195 189 167 193 197 200 198 204 203 200 200 197 206 129 52 37 32 31 25
228 226 229 226 232 227 191 212 232 233 213 218 159 178 141 169 172 181 189 188 209 147 194 208 204 207 211 212 210 214 212 217 205 167 15 13 16 14
235 229 231 229 236 233 209 211 215 227 200 237 192 171 176 167 182 178 180 199 208 202 182 187 190 204 220 222 219 215 214 213 212 224 247 327 339 357
232 230 226 223 222 218 203 210 195 203 209 230 228 189 181 173 183 178 184 179 189 209 198 183 196 204 207 223 251 222 215 209 205 221 241 252 283 310
236 230 235 228 219 205 204 236 209 198 187 215 246 221 194 184 172 177 176 181 186 180 211 198 212 209 220 215 45 302 207 202 208 219 232 244 254 279
245 236 230 222 224 210 212 196 193 194 227 203 248 239 198 195 174 178 180 180 180 140 202 194 203 227 213 131 103 186 197 204 215 216 237 251 275 291
253 247 244 226 217 205 179 203 194 189 207 217 245 248 234 183 187 190 178 146 133 153 193 243 162 236 224 137 92 58 205 207 204 209 233 253 263 275
258 256 227 231 230 219 168 182 196 208 170 250 277 294 198 192 183 165 172 179 165 155 173 218 130 134 110 101 124 81 79 209 213 223 245 263 280 284
219 224 235 227 251 207 178 206 217 198 155 177 190 208 197 182 185 213 176 190 158 160 153 181 152 240 168 138 149 139 151 157 201 227 245 246 258 286
213 210 223 195 200 190 217 225 222 168 164 197 187 188 165 154 171 191 181 186 180 138 142 176 162 161 214 326 186 175 348 88 276 202 190 179 221 276
279 30 313 198 199 175 185 142 138 140 137 206 194 182 170 167 147 138 127 113 75 72 151 198 173 211 202 255 295 145 25 332 323 328 317 216 195 198
226 111 109 141 130 150 196 160 148 154 164 183 188 179 171 131 129 134 123 111 89 99 148 212 258 182 256 303 314 358 335 88 330 332 326 318 325 322
154 119 100 113 61 97 107 134 174 177 174 182 180 149 130 145 139 146 146 155 167 141 85 268 230 235 228 256 295 335 340 320 356 0 337 305 299 319
116 142 138 138 136 129 141 169 183 171 168 153 160 147 124 136 127 171 137 92 62 150 164 201 187 217 273 309 304 339 318 289 329 1 314 327 322 357
151 138 134 129 136 148 153 162 182 172 168 173 166 159 160 155 125 102 68 88 72 233 162 167 184 166 196 130 8 333 311 317 337 332 300 328 331 356
117 119 115 122 126 146 173 152 174 160 135 155 140 145 158 123 122 117 162 146 207 213 189 184 184 243 244 296 106 15 314 330 322 314 351 344 332 0
67 84 272 257 243 244 198 181 155 146 146 148 150 161 149 138 123 179 184 200 180 169 162 160 212 194 312 3 342 79 1 309 330 340 357 333 61 186
246 246 238 250 240 204 174 159 162 166 167 164 158 150 148 136 133 226 217 178 169 170 170 171 89 11 95 170 226 151 130 65 341 353 356 336 26 45
324 255 223 207 189 177 161 158 145 146 152 152 159 152 161 164 191 178 151 160 171 198 152 121 142 159 191 282 4 116 129 138 171 191 221 284 343 6
201 227 180 178 180 177 163 167 159 166 161 160 153 170 171 181 178 154 141 164 200 176 161 142 152 185 153 49 357 91 101 137 35 345 145 187 225 246